Regional Weather Roundup
Issued by NWS

Home | Current Version | Previous Version | Text Only | Print | Product List | Glossary On
Versions: 1 2 3 4 5 6 7 8 9 10 11 12 13 14 15 16 17 18 19 20 21 22 23 24 25 26 27 28 29 30 31 32 33 34 35 36 37 38 39 40 41 42 43 44 45 46 47 48 49 50
897
ASUS43 KDTX 220310
RWRMI
MICHIGAN HOURLY REGIONAL WEATHER ROUNDUP
NATIONAL WEATHER SERVICE DETROIT/PONTIAC MI
1000 PM EST TUE NOV 21 2017

NOTE: "FAIR" INDICATES FEW OR NO CLOUDS BELOW 12,000 FEET WITH NO
SIGNIFICANT WEATHER AND/OR OBSTRUCTION TO VISIBILITY.

MIZ047>049-052>055-059>063-066>070-074>076-081>083-220400-
SOUTHEAST LOWER MICHIGAN

CITY           SKY/WX    TMP DP  RH WIND       PRES   REMARKS
ADRIAN         CLOUDY    35  28  75 NW8       30.01R WCI  29
ALMA           CLOUDY    32  21  63 NW15      30.03R WCI  22
ANN ARBOR      CLOUDY    35  29  78 W9        29.98R WCI  28
BAD AXE        CLOUDY    32  21  62 NW16G25   29.97R WCI  22
CARO           CLOUDY    33  24  70 NW10G22   29.98R WCI  25
DETROIT CITY   CLOUDY    38  31  76 NW9       29.96R WCI  31
DETROIT        CLOUDY    37  29  72 NW15G22   29.97R WCI  28
FLINT          CLOUDY    34  22  61 NW14G21   30.00R WCI  25
GROSSE ILE     CLOUDY    38  32  80 NW9       29.96R WCI  31
HILLSDALE      CLOUDY    32  28  86 NW12      29.99R WCI  23
HOWELL         CLOUDY    34  27  75 NW13      29.98R WCI  25

CITY           SKY/WX    TMP DP  RH WIND       PRES   REMARKS
JACKSON        CLOUDY    35  26  69 W8G20     30.00R WCI  29
LAMBERTVILLE   CLOUDY    39  31  73 W6        29.99R WCI  34
LANSING        CLOUDY    33  22  63 NW10      30.02R WCI  25
LAPEER         CLOUDY    34  23  66 NW9G16    29.98R WCI  26
MASON          CLOUDY    36  26  67 NW13G21   30.01R WCI  27
MONROE         CLOUDY    38  32  78 W8        29.98R WCI  32
MT. CLEMENS    CLOUDY    36  28  72 NW14      29.94R WCI  27
PONTIAC        CLOUDY    35  27  72 NW10      29.96R WCI  27
PORT HOPE        N/A     34  22  61 NW23G31   29.93R WCI  22
PORT HURON     CLOUDY    34  27  75 NW9       29.96R WCI  26
TRI CITIES     CLOUDY    33  21  61 NW15      30.02R WCI  23
MIDLAND        CLOUDY    33  20  59 NW12      30.01R WCI  24
TROY           CLOUDY    39  30  70 NW8       29.99R WCI  33
SAGINAW HB     CLOUDY    32  21  64 NW14G23   30.00R WCI  22
$$
MIZ043>046-050>051-056>058-064>065-071>073-077>080-220400-
SOUTHWEST LOWER MICHIGAN

CITY           SKY/WX    TMP DP  RH WIND       PRES   REMARKS
BATTLE CREEK   CLOUDY    33  24  69 NW12      30.04R WCI  24
BENTON HARBOR  CLOUDY    35  21  56 VRB6G18   30.09R WCI  30
BIG RAPIDS     CLOUDY    30  19  63 N10G17    30.03R WCI  21
COLDWATER      CLOUDY    34  27  75 NW10      30.03R WCI  26
FREMONT        CLOUDY    31  21  65 N14       30.06R WCI  21
HOLLAND        CLOUDY    35  22  58 N6        30.07R WCI  30
GRAND RAPIDS   FLURRIES  33  23  66 NW18      30.04R WCI  22
IONIA          CLOUDY    33  21  61 NW12G17   30.02S WCI  24
KALAMAZOO      CLOUDY    34  21  59 NW9       30.05R WCI  27
LUDINGTON      CLOUDY    30  20  65 NW10G21   30.09R WCI  21
MARSHALL       CLOUDY    33  24  70 NW5       30.02R WCI  29
MOUNT PLEASANT CLOUDY    32  19  58 NW6       30.02R WCI  27
MUSKEGON       CLOUDY    33  21  61 N13       30.08R WCI  24
SOUTH HAVEN    CLOUDY    36  22  57 N13G18    30.08R WCI  27
$$
MIZ016>042-220400-
NORTHERN LOWER MICHIGAN

CITY           SKY/WX    TMP DP  RH WIND       PRES   REMARKS
ALPENA         CLOUDY    29  19  66 NW15G31   29.98R WCI  18
BEAVER ISLAND  MOCLDY    28  20  70 NW13G21   30.05R WCI  18
BELLAIRE       CLOUDY    30  22  73 NW5       30.05R WCI  25
CADILLAC       CLOUDY    27  16  64 NW17G24   30.01R WCI  14
CHARLEVOIX     CLOUDY    30  17  59 NW16G25   30.07R WCI  19
FRANKFORT      CLOUDY    29  16  58 NW13      30.10R WCI  19
GAYLORD        LGT SNOW  24  21  88 NW8G17    29.98R VSB 3/4 WCI  15
GRAYLING       LGT SNOW  27  22  81 NW8       30.00S WCI  19
HARBOR SPRINGS LGT SNOW  27  23  87 NW8       30.03R WCI  18
HOUGHTON LAKE  LGT SNOW  27  20  75 NW14      30.01R WCI  16
MANISTEE       FLURRIES  29  20  69 NW14G23   30.09R WCI  18
OSCODA         CLOUDY    31  16  55 NW20G29   29.97R WCI  18
PELLSTON       CLOUDY    28  20  71 NW8       30.03R WCI  20
ROGERS CITY    FLURRIES  28  20  70 NW12G22   29.99R WCI  18
TRAVERSE CITY  CLOUDY    29  17  61 NW14      30.06R WCI  18
$$
MIZ007>008-015-220400-
EASTERN UPPER MICHIGAN

CITY           SKY/WX    TMP DP  RH WIND       PRES   REMARKS
KINROSS        FLURRIES  25  15  66 NW16G33   29.99R WCI  12
MACKINAC ISLAN CLOUDY    28  17  65 NW13G24   30.01R WCI  17
NEWBERRY       FLURRIES  24  23  96 W9        30.01R WCI  14
S. S. MARIE    MIX PCPN  23  13  65 N12       29.99R WCI  12
MUNISING         N/A     28  26  92 N15G28    30.06R WCI  16
$$
MIZ004>006-011>014-085-220400-
CENTRAL UPPER MICHIGAN

CITY           SKY/WX    TMP DP  RH WIND       PRES   REMARKS
MANISTIQUE     FLURRIES  22  17  82 NW9       30.06R WCI  12
MENOMINEE      FLURRIES  25  14  63 N10G17    30.15R WCI  15
SAWYER-GWINN   FLURRIES  21  18  86 NW12      30.06R WCI   9
$$
MIZ001>003-009>011-084-220400-
WESTERN UPPER MICHIGAN

CITY           SKY/WX    TMP DP  RH WIND       PRES   REMARKS
IRON MOUNTAIN  LGT SNOW  22  13  68 NW13      30.09R WCI  10
HOUGHTON       CLOUDY    22  12  65 NW15G29   30.07R WCI   9
COPPER HARBOR    N/A     27  19  72 N22       30.08R WCI  13
IRONWOOD       FLURRIES  20  13  74 NW15G26   30.16S WCI   6
$$

ABBREVIATIONS USED IN REMARKS
   TC - TEMPERATURE IN CELSIUS
  WCI - WIND CHILL INDEX
   HX - HEAT INDEX
  VSB - VISIBILITY





USA.gov is the U.S. government's official web portal to all federal, state and local government web resources and services.